Starlink 3665

operational
NORAD ID: 52098 Int'l Des: 2022-029 Owner: SPXS Country: US Constellation: starlink
LEOCIRCULAR

Starlink 3665について

説明を読み込み中...

リアルタイム位置

3D地球を読み込み中...

次回通過

高度履歴

Altitude vs Time

uPlot chart will show altitude changes over time

軌道要素

1 52098U 22029L 25350.60455896 .00002347 00000-0 16555-3 0 9998
2 52098 53.2182 102.1036 0001158 91.8881 268.2244 15.08831709208112
Epoch: Dec 16, 2025 • Age: 22 hours

現在のステータス

高度 558.7 km
速度 7.58 km/s
衛星直下点 -52.23°S, 111.77°E
打ち上げ日 Mar 19, 2022
運用期間 3.7 years
タイプ internet

技術仕様

分類 Payload
質量 297.00 kg
乾燥質量 275.00 kg
総質量 297.00 kg
長さ 0.20 m
直径 2.80 m
スパン 9.00 m
形状 Box + pan
製造者 SPXS
バスタイプ Starlink
フェーズステータス In Orbit
所有者/国 SPXS/US

大規模コンステレーション

Loading constellations...